Location: Poughquag
(41.6090°N, 73.6820°W)
Time: 11:38:52
(UTC-04:00)

Tiros 1 - Pass Details

Date: 06 June 2020
Orbit: 630 x 664 km, 48.4° (Epoch: 06 July)

Event Time Altitude Azimuth Distance (km) Brightness Sun altitude
Rises 12:49:13 0° 271° (W) 2,980 10.6 71.1°
Reaches altitude 10° 12:51:42 10° 279° (W) 2,064 9.9 71.1°
Maximum altitude 12:56:11 40° 349° (N) 963 8.4 71.1°
Drops below altitude 10° 13:00:38 10° 60° (ENE) 2,046 9.7 71.1°
Sets 13:03:05 0° 68° (ENE) 2,950 10.4 71.0°
